Hauptseite
METAR-TAF:

METAR-TAF

Flughäfen :

Bohrplattform

J6-a, Niederlande

Breite: 53-49-27N, Länge: 2-56-43E, Höhe: 34 m

Beobachtung

Neuester Wetterbericht von vor 39 Minuten, um 01:55 UTC
Wind 20 kt aus Ost
Temperatur 10°C
Luftfeuchtigkeit 76%
Luftdruck 1032 hPa
Sichtweite 10 km oder mehr

METAR: EHJA 180155Z AUTO 10020KT 9999 ///////// 10/06 Q1032 W///H///

Zeit: 03:34 (02:34 UTC)


TAF: fehlend

Wetterbeobachtungen und Prognosen von mehr als 4000 Flughäfen (METAR und TAF Bericht).

Die verfügbaren Stationen werden durch gelbe und rote Markierungen auf der Karte dargestellt.

Führen Sie die Maus auf sie, um den Namen der Station zu sehen.

Darauf klicken, um die Beobachtung von Wetterbeobachtungen und Prognosen zu sehen.

Um die Karte zu ändern : klicken Sie auf den grünen Tasten mit einem schwarzen Kreuz Zum Vergrößern, auf den grünen Button mit einem Gedankenstrich zu verkleinern, oder auf die grünen Pfeile für benachbarte Karten.


METAR-TAF: